Date String (YYYY-MM-DD hh:mm:ss) UTC,Instrument flags,absolute air pressure of the measurement (hPa),sample flow rate (lpm),inlet stack bypass flow (lpm),air temperature of the measurement (°C),ambient temperature measured by the external sensor (°C),aerosol sample conditioner tube jacket temperature (°C),OPC LED temperature (°C),internal box temperature (°C),relative humidity of the measurement (%),span deviation,mass concentration of particles derived from Lorenz-Mie calculation of OPC scattering (μg/m³),mass concentration of particles derived from Lorenz-Mie calculation of OPC scattering (μg/m³),mass concentration of particles derived from Lorenz-Mie calculation of OPC scattering (μg/m³)
DateTimeUTC,F1_M11,P_M11,Q1_M11,Q2_M11,T1_M11,T2_M11,T3_M11,T4_M11,T5_M11,U1_M11,ZSPAN_M11,X0_M11,X2_M11,X1_M11
2023-06-20 17:00:00,SystemResetWarning,0828.9,5.02,000.00,029.6,027.6,000.0,038.2,031.1,19.5,0000.0,0016.17,0004.97,0003.68
2023-06-20 17:01:00,SystemResetWarning,0828.9,5.00,000.00,029.6,027.8,000.0,038.2,031.1,20.6,0000.0,0014.75,0004.93,0003.67
2023-06-20 17:02:00,SystemResetWarning,0829.0,5.00,000.00,029.7,028.0,000.0,038.2,031.2,21.4,0000.0,0014.42,0004.85,0003.63
2023-06-20 17:03:00,SystemResetWarning,0829.0,5.00,000.00,029.7,028.1,000.0,038.2,031.2,20.3,0000.0,0015.57,0004.79,0003.59
2023-06-20 17:04:00,SystemResetWarning,0829.0,5.00,000.00,029.7,028.2,000.0,038.2,031.3,21.4,0000.0,0015.46,0004.75,0003.54
2023-06-20 17:05:00,SystemResetWarning,0829.0,5.00,000.00,029.7,028.3,000.0,038.2,031.3,23.2,0000.0,0015.12,0004.70,0003.49
2023-06-20 17:06:00,SystemResetWarning,0828.9,4.99,000.00,029.8,027.8,000.0,038.2,031.4,20.6,0000.0,0014.30,0004.64,0003.44
2023-06-20 17:07:00,SystemResetWarning,0828.9,5.00,000.00,029.8,025.9,000.0,038.2,031.3,20.7,0000.0,0015.14,0004.62,0003.42
2023-06-20 17:08:00,SystemResetWarning,0829.0,5.01,000.00,029.8,025.5,000.0,038.1,031.3,19.9,0000.0,0014.58,0004.66,0003.41
2023-06-20 17:09:00,SystemResetWarning,0829.0,5.00,000.00,029.7,025.8,000.0,038.1,031.0,18.7,0000.0,0014.90,0004.65,0003.41
2023-06-20 17:10:00,SystemResetWarning,0829.0,4.99,000.00,029.6,026.2,000.0,038.1,031.0,17.9,0000.0,0015.29,0004.62,0003.40
2023-06-20 17:11:00,SystemResetWarning,0829.0,5.00,000.00,029.6,026.5,000.0,038.2,031.0,17.9,0000.0,0014.88,0004.59,0003.35
2023-06-20 17:12:00,SystemResetWarning,0829.0,5.03,000.00,029.6,026.9,000.0,038.2,031.0,19.1,0000.0,0014.88,0004.54,0003.28
2023-06-20 17:13:00,SystemResetWarning,0828.9,4.99,000.00,029.6,027.2,000.0,038.2,031.0,19.6,0000.0,0016.39,0004.54,0003.26
2023-06-20 17:14:00,SystemResetWarning,0829.0,4.99,000.00,029.6,027.5,000.0,038.2,031.1,20.5,0000.0,0015.46,0004.50,0003.23
2023-06-20 17:15:00,SystemResetWarning,0828.9,5.01,000.00,029.6,027.7,000.0,038.2,031.1,19.2,0000.0,0015.79,0004.48,0003.21
2023-06-20 17:16:00,SystemResetWarning,0828.9,5.01,000.00,029.7,027.9,000.0,038.2,031.2,18.5,0000.0,0016.04,0004.50,0003.20
2023-06-20 17:17:00,SystemResetWarning,0828.9,5.01,000.00,029.7,028.0,000.0,038.2,031.2,18.1,0000.0,0015.76,0004.51,0003.19
2023-06-20 17:18:00,SystemResetWarning,0828.8,5.00,000.00,029.7,028.1,000.0,038.2,031.2,17.6,0000.0,0014.89,0004.49,0003.16
2023-06-20 17:19:00,SystemResetWarning,0828.8,4.99,000.00,029.8,028.1,000.0,038.2,031.3,17.5,0000.0,0013.74,0004.37,0003.13
2023-06-20 17:20:00,SystemResetWarning,0828.8,4.98,000.00,029.8,026.5,000.0,038.2,031.3,15.9,0000.0,0013.23,0004.28,0003.11
2023-06-20 17:21:00,SystemResetWarning,0828.8,5.02,000.00,029.7,025.7,000.0,038.1,031.3,17.1,0000.0,0012.84,0004.25,0003.09
2023-06-20 17:22:00,SystemResetWarning,0828.9,5.01,000.00,029.7,025.9,000.0,038.1,031.1,19.0,0000.0,0013.09,0004.23,0003.06
2023-06-20 17:23:00,SystemResetWarning,0829.0,5.00,000.00,029.6,026.2,000.0,038.1,030.9,18.9,0000.0,0013.29,0004.20,0003.05
2023-06-20 17:24:00,SystemResetWarning,0829.0,5.00,000.00,029.6,026.6,000.0,038.1,030.9,16.4,0000.0,0012.16,0004.23,0003.04
2023-06-20 17:25:00,SystemResetWarning,0828.9,5.01,000.00,029.6,026.9,000.0,038.2,031.0,17.2,0000.0,0012.63,0004.25,0003.05
2023-06-20 17:26:00,SystemResetWarning,0828.9,5.00,000.00,029.6,027.2,000.0,038.2,031.0,17.9,0000.0,0012.02,0004.22,0003.03
2023-06-20 17:27:00,SystemResetWarning,0828.9,5.00,000.00,029.6,027.5,000.0,038.2,031.1,22.7,0000.0,0011.79,0004.16,0003.00
2023-06-20 17:28:00,SystemResetWarning,0829.0,4.99,000.00,029.7,027.7,000.0,038.2,031.1,33.8,0000.0,0012.14,0004.11,0002.98
2023-06-20 17:29:00,SystemResetWarning,0829.0,5.00,000.00,029.7,027.9,000.0,038.2,031.2,32.4,0000.0,0012.62,0004.09,0003.00
2023-06-20 17:30:00,SystemResetWarning,0829.0,5.00,000.00,029.7,028.1,000.0,038.2,031.2,33.4,0000.0,0013.95,0004.23,0003.12
2023-06-20 17:31:00,SystemResetWarning,0829.1,5.00,000.00,029.7,028.2,000.0,038.2,031.3,33.9,0000.0,0013.95,0004.35,0003.21
2023-06-20 17:32:00,SystemResetWarning,0829.1,4.99,000.00,029.8,027.0,000.0,038.2,031.3,32.3,0000.0,0014.57,0004.47,0003.30
2023-06-20 17:33:00,SystemResetWarning,0829.1,5.00,000.00,029.7,025.0,000.0,038.1,031.1,33.9,0000.0,0015.58,0004.63,0003.43
2023-06-20 17:34:00,SystemResetWarning,0829.0,5.02,000.00,029.7,024.6,000.0,038.1,031.1,30.6,0000.0,0016.44,0004.73,0003.53
2023-06-20 17:35:00,SystemResetWarning,0829.0,5.01,000.00,029.6,024.9,000.0,038.0,030.9,33.9,0000.0,0016.39,0004.80,0003.63
2023-06-20 17:36:00,SystemResetWarning,0829.0,4.98,000.00,029.5,025.4,000.0,038.1,030.8,34.8,0000.0,0016.53,0004.96,0003.72
2023-06-20 17:37:00,SystemResetWarning,0829.0,5.02,000.00,029.5,025.9,000.0,038.1,030.8,35.0,0000.0,0016.48,0005.10,0003.84
2023-06-20 17:38:00,SystemResetWarning,0829.0,4.97,000.00,029.6,026.3,000.0,038.1,030.9,34.5,0000.0,0017.03,0005.28,0003.95
2023-06-20 17:39:00,SystemResetWarning,0829.0,5.01,000.00,029.7,026.7,000.0,038.1,030.9,33.8,0000.0,0017.41,0005.43,0004.07
2023-06-20 17:40:00,SystemResetWarning,0829.0,5.02,000.00,029.8,027.1,000.0,038.1,031.0,34.0,0000.0,0017.77,0005.59,0004.18
2023-06-20 17:41:00,SystemResetWarning,0828.9,4.99,000.00,029.8,027.3,000.0,038.1,031.1,34.0,0000.0,0017.91,0005.67,0004.24
2023-06-20 17:42:00,SystemResetWarning,0828.9,4.99,000.00,029.9,027.6,000.0,038.1,031.1,34.1,0000.0,0018.77,0005.69,0004.25
2023-06-20 17:43:00,SystemResetWarning,0829.0,5.00,000.00,029.9,027.8,000.0,038.2,031.1,34.5,0000.0,0019.44,0005.72,0004.27
2023-06-20 17:44:00,SystemResetWarning,0829.0,5.00,000.00,029.9,027.9,000.0,038.2,031.2,33.5,0000.0,0020.14,0005.69,0004.27
2023-06-20 17:45:00,SystemResetWarning,0828.9,4.99,000.00,030.0,028.1,000.0,038.3,031.3,34.6,0000.0,0019.59,0005.71,0004.28
2023-06-20 17:46:00,SystemResetWarning,0829.0,5.02,000.00,030.1,028.2,000.0,038.3,031.4,34.3,0002.6,0019.56,0005.75,0004.29
2023-06-20 17:47:00,SystemResetWarning,0828.8,4.99,000.00,030.2,028.3,000.0,038.3,031.4,34.2,0002.8,0018.83,0005.74,0004.30
2023-06-20 17:48:00,SystemResetWarning,0828.8,5.00,000.00,030.2,027.1,000.0,038.3,031.4,33.3,0000.0,0018.87,0005.72,0004.32
2023-06-20 17:49:00,SystemResetWarning,0828.7,5.00,000.00,030.2,025.7,000.0,038.3,031.3,33.1,0000.0,0018.78,0005.65,0004.32
2023-06-20 17:50:00,SystemResetWarning,0828.7,5.01,000.00,030.2,025.7,000.0,038.3,031.2,33.4,0000.0,0019.78,0005.69,0004.30
2023-06-20 17:51:00,SystemResetWarning,0828.7,5.01,000.00,030.1,026.0,000.0,038.3,031.1,33.1,0000.0,0019.75,0005.72,0004.31
2023-06-20 17:52:00,SystemResetWarning,0828.7,4.99,000.00,030.1,026.4,000.0,038.3,031.1,33.3,0000.0,0018.91,0005.70,0004.32
2023-06-20 17:53:00,SystemResetWarning,0828.7,5.00,000.00,030.1,026.7,000.0,038.4,031.1,32.1,0000.0,0018.46,0005.73,0004.33
2023-06-20 17:54:00,SystemResetWarning,0828.6,5.01,000.00,030.1,027.1,000.0,038.4,031.1,32.3,0000.0,0019.06,0005.75,0004.35
2023-06-20 17:55:00,SystemResetWarning,0828.6,4.99,000.00,030.1,027.4,000.0,038.4,031.2,32.8,0000.0,0018.11,0005.79,0004.36
2023-06-20 17:56:00,SystemResetWarning,0828.7,4.99,000.00,030.1,027.6,000.0,038.4,031.2,32.7,0000.0,0016.57,0005.78,0004.36
2023-06-20 17:57:00,SystemResetWarning,0828.7,5.01,000.00,030.1,027.8,000.0,038.5,031.3,31.7,0000.0,0016.44,0005.73,0004.36
2023-06-20 17:58:00,SystemResetWarning,0828.6,5.01,000.00,030.1,028.0,000.0,038.5,031.3,31.5,0000.0,0016.99,0005.71,0004.36
2023-06-20 17:59:00,SystemResetWarning,0828.6,4.99,000.00,030.1,028.2,000.0,038.5,031.4,31.0,0000.0,0017.15,0005.68,0004.34
